| time (UTC) | temp F | wind direction | speed knots | gust knots | rain 1hr in | rain 24hr in | rain mn in | humidity % | barometer mb |
| 20260507032809 | 57 | 84 | 4.3 | 7.8 | 0.00 | 0.00 | 0.00 | 72 | 1017.0 |
| 20260507032306 | 58 | 67 | 3.5 | 4.3 | 0.00 | 0.00 | 0.00 | 71 | 1017.2 |
| 20260507031802 | 58 | 118 | 1.7 | 4.3 | 0.00 | 0.00 | 0.00 | 70 | 1016.9 |
| 20260507031259 | 58 | 104 | 2.6 | 7.8 | 0.00 | 0.00 | 0.00 | 69 | 1016.9 |
| 20260507030755 | 59 | 105 | 2.6 | 7.8 | 0.00 | 0.00 | 0.00 | 69 | 1017.0 |
| 20260507030253 | 59 | 135 | 0.0 | 13.0 | 0.00 | 0.00 | 0.00 | 68 | 1016.9 |
| 20260507025750 | 59 | 67 | 6.1 | 6.1 | 0.00 | 0.00 | 0.00 | 68 | 1016.8 |
| 20260507025247 | 59 | 106 | 1.7 | 7.0 | 0.00 | 0.00 | 0.00 | 67 | 1016.9 |
| 20260507024745 | 59 | 114 | 2.6 | 7.8 | 0.00 | 0.00 | 0.00 | 67 | 1016.8 |
| 20260507024242 | 59 | 86 | 2.6 | 7.8 | 0.00 | 0.00 | 0.00 | 66 | 1016.5 |
| 20260507023737 | 59 | 76 | 6.1 | 11.3 | 0.00 | 0.00 | 0.00 | 66 | 1016.4 |
| 20260507023235 | 60 | 126 | 1.7 | 7.8 | 0.00 | 0.00 | 0.00 | 66 | 1016.6 |
| 20260507022732 | 60 | 72 | 6.1 | 6.1 | 0.00 | 0.00 | 0.00 | 66 | 1016.5 |
| 20260507022228 | 60 | 84 | 2.6 | 6.1 | 0.00 | 0.00 | 0.00 | 66 | 1016.4 |
| 20260507021724 | 60 | 110 | 2.6 | 7.0 | 0.00 | 0.00 | 0.00 | 66 | 1016.3 |
| 20260507021220 | 60 | 68 | 4.3 | 6.1 | 0.00 | 0.00 | 0.00 | 65 | 1016.2 |
| 20260507020719 | 60 | 94 | 4.3 | 6.1 | 0.00 | 0.00 | 0.00 | 65 | 1016.4 |
| 20260507020214 | 61 | 84 | 1.7 | 7.8 | 0.00 | 0.00 | 0.00 | 64 | 1016.0 |
| 20260507015712 | 61 | 82 | 4.3 | 7.8 | 0.00 | 0.00 | 0.00 | 63 | 1016.1 |
| 20260507015210 | 61 | 99 | 1.7 | 7.0 | 0.00 | 0.00 | 0.00 | 63 | 1015.8 |
| 20260507014706 | 61 | 102 | 0.0 | 11.3 | 0.00 | 0.00 | 0.00 | 62 | 1015.7 |
| 20260507014202 | 62 | 89 | 4.3 | 9.6 | 0.00 | 0.00 | 0.00 | 62 | 1016.0 |
| 20260507013659 | 62 | 74 | 8.7 | 14.8 | 0.00 | 0.00 | 0.00 | 60 | 1015.7 |
| 20260507013156 | 62 | 85 | 5.2 | 9.6 | 0.00 | 0.00 | 0.00 | 59 | 1015.8 |
| 20260507012654 | 63 | 69 | 5.2 | 9.6 | 0.00 | 0.00 | 0.00 | 58 | 1015.6 |
| 20260507012149 | 63 | 89 | 2.6 | 6.1 | 0.00 | 0.00 | 0.00 | 58 | 1015.3 |
| 20260507011647 | 63 | 82 | 5.2 | 6.1 | 0.00 | 0.00 | 0.00 | 57 | 1015.3 |
| 20260507011143 | 64 | 108 | 0.0 | 4.3 | 0.00 | 0.00 | 0.00 | 56 | 1015.4 |
| 20260507010638 | 64 | 81 | 3.5 | 9.6 | 0.00 | 0.00 | 0.00 | 56 | 1015.3 |
| 20260507010134 | 64 | 67 | 6.1 | 8.7 | 0.00 | 0.00 | 0.00 | 56 | 1015.2 |
| 20260507005632 | 64 | 255 | 0.0 | 6.1 | 0.00 | 0.00 | 0.00 | 57 | 1015.3 |
| 20260507005127 | 64 | 112 | 0.0 | 3.5 | 0.00 | 0.00 | 0.00 | 56 | 1015.1 |
| 20260507004625 | 65 | 129 | 0.0 | 6.1 | 0.00 | 0.00 | 0.00 | 55 | 1015.2 |
| 20260507004122 | 65 | 81 | 0.0 | 11.3 | 0.00 | 0.00 | 0.00 | 55 | 1015.0 |
| 20260507003618 | 65 | 103 | 0.0 | 13.0 | 0.00 | 0.00 | 0.00 | 55 | 1015.1 |
| 20260507003113 | 65 | 80 | 2.6 | 6.1 | 0.00 | 0.00 | 0.00 | 55 | 1015.2 |
| 20260507002610 | 65 | 82 | 4.3 | 4.3 | 0.00 | 0.00 | 0.00 | 54 | 1015.0 |
| 20260507002106 | 66 | 89 | 0.0 | 7.8 | 0.00 | 0.00 | 0.00 | 54 | 1014.9 |
| 20260507001603 | 66 | 92 | 6.1 | 14.8 | 0.00 | 0.00 | 0.00 | 53 | 1014.8 |
| 20260507001100 | 66 | 87 | 6.1 | 7.8 | 0.00 | 0.00 | 0.00 | 53 | 1014.9 |
| 20260507000556 | 67 | 66 | 2.6 | 9.6 | 0.00 | 0.00 | 0.00 | 52 | 1014.8 |
| 20260507000052 | 66 | 135 | 0.0 | 2.6 | 0.00 | 0.00 | 0.00 | 54 | 1014.8 |
| 20260506235550 | 67 | 86 | 0.0 | 6.1 | 0.00 | 0.00 | 0.00 | 52 | 1014.9 |
| 20260506235044 | 67 | 233 | 0.0 | 7.8 | 0.00 | 0.00 | 0.00 | 52 | 1014.7 |
| 20260506234542 | 68 | 107 | 0.0 | 7.8 | 0.00 | 0.00 | 0.00 | 50 | 1014.7 |
| 20260506234039 | 69 | 73 | 7.0 | 9.6 | 0.00 | 0.00 | 0.00 | 48 | 1014.4 |
| 20260506233536 | 68 | 227 | 0.0 | 3.5 | 0.00 | 0.00 | 0.00 | 51 | 1014.5 |
| 20260506233033 | 68 | 83 | 4.3 | 9.6 | 0.00 | 0.00 | 0.00 | 49 | 1014.6 |
| 20260506232529 | 68 | 44 | 4.3 | 6.1 | 0.00 | 0.00 | 0.00 | 48 | 1014.5 |
| 20260506232025 | 68 | 96 | 4.3 | 8.7 | 0.00 | 0.00 | 0.00 | 50 | 1014.4 |
| 20260506231522 | 69 | 66 | 4.3 | 7.0 | 0.00 | 0.00 | 0.00 | 47 | 1014.5 |
| 20260506231020 | 70 | 173 | 1.7 | 3.5 | 0.00 | 0.00 | 0.00 | 47 | 1014.4 |
| 20260506230516 | 69 | 202 | 0.0 | 3.5 | 0.00 | 0.00 | 0.00 | 46 | 1014.4 |
| 20260506230014 | 69 | 79 | 6.1 | 6.1 | 0.00 | 0.00 | 0.00 | 47 | 1014.3 |
| 20260506225511 | 70 | 91 | 5.2 | 5.2 | 0.00 | 0.00 | 0.00 | 45 | 1014.1 |
| 20260506225007 | 71 | 152 | 2.6 | 4.3 | 0.00 | 0.00 | 0.00 | 44 | 1014.3 |
| 20260506224504 | 70 | 157 | 1.7 | 4.3 | 0.00 | 0.00 | 0.00 | 44 | 1013.9 |
| 20260506224001 | 69 | 212 | 1.7 | 7.8 | 0.00 | 0.00 | 0.00 | 46 | 1014.1 |
| 20260506223456 | 71 | 75 | 4.3 | 7.0 | 0.00 | 0.00 | 0.00 | 44 | 1014.1 |
| 20260506222953 | 67 | 261 | 0.0 | 3.5 | 0.00 | 0.00 | 0.00 | 46 | 1014.2 |
| 20260506222450 | 69 | 227 | 1.7 | 4.3 | 0.00 | 0.00 | 0.00 | 46 | 1014.2 |
| 20260506221947 | 68 | 112 | 0.0 | 4.3 | 0.00 | 0.00 | 0.00 | 47 | 1013.9 |
| 20260506221444 | 68 | 126 | 0.0 | 7.8 | 0.00 | 0.00 | 0.00 | 46 | 1014.1 |
| 20260506220942 | 70 | 97 | 2.6 | 5.2 | 0.00 | 0.00 | 0.00 | 45 | 1013.9 |
| 20260506220437 | 69 | 75 | 4.3 | 4.3 | 0.00 | 0.00 | 0.00 | 45 | 1014.1 |
| 20260506215934 | 70 | 228 | 0.0 | 6.1 | 0.00 | 0.00 | 0.00 | 47 | 1014.2 |
| 20260506215430 | 70 | 71 | 2.6 | 8.7 | 0.00 | 0.00 | 0.00 | 45 | 1014.1 |
| 20260506214926 | 70 | 232 | 2.6 | 4.3 | 0.00 | 0.00 | 0.00 | 47 | 1014.1 |
| 20260506214423 | 71 | 134 | 1.7 | 6.1 | 0.00 | 0.00 | 0.00 | 45 | 1014.1 |
| 20260506213921 | 72 | 93 | 3.5 | 8.7 | 0.00 | 0.00 | 0.00 | 43 | 1014.2 |
| 20260506213418 | 71 | 62 | 1.7 | 4.3 | 0.00 | 0.00 | 0.00 | 43 | 1014.4 |
| 20260506212915 | 69 | 248 | 0.0 | 1.7 | 0.00 | 0.00 | 0.00 | 47 | 1014.3 |
| 20260506212411 | 68 | 66 | 0.0 | 4.3 | 0.00 | 0.00 | 0.00 | 46 | 1014.5 |
| 20260506211906 | 68 | 144 | 0.0 | 6.1 | 0.00 | 0.00 | 0.00 | 46 | 1014.2 |
| 20260506211403 | 70 | 43 | 4.3 | 4.3 | 0.00 | 0.00 | 0.00 | 44 | 1014.5 |
| 20260506210900 | 69 | 315 | 0.0 | 5.2 | 0.00 | 0.00 | 0.00 | 47 | 1014.5 |
| 20260506210356 | 69 | 73 | 3.5 | 6.1 | 0.00 | 0.00 | 0.00 | 46 | 1014.7 |
| 20260506205854 | 66 | 180 | 0.0 | 9.6 | 0.00 | 0.00 | 0.00 | 52 | 1014.5 |
| 20260506205349 | 69 | 230 | 0.0 | 4.3 | 0.00 | 0.00 | 0.00 | 45 | 1014.7 |
| 20260506204846 | 69 | 164 | 3.5 | 5.2 | 0.00 | 0.00 | 0.00 | 47 | 1014.7 |
| 20260506204344 | 69 | 142 | 2.6 | 4.3 | 0.00 | 0.00 | 0.00 | 47 | 1014.8 |
| 20260506203841 | 69 | 204 | 2.6 | 4.3 | 0.00 | 0.00 | 0.00 | 48 | 1014.8 |
| 20260506203338 | 66 | 170 | 0.0 | 4.3 | 0.00 | 0.00 | 0.00 | 51 | 1014.7 |
| 20260506202835 | 66 | 99 | 2.6 | 4.3 | 0.00 | 0.00 | 0.00 | 48 | 1015.0 |
| 20260506202332 | 65 | 240 | 3.5 | 5.2 | 0.00 | 0.00 | 0.00 | 53 | 1015.0 |
| 20260506201829 | 65 | 95 | 7.0 | 19.1 | 0.00 | 0.00 | 0.00 | 52 | 1014.8 |
| 20260506201326 | 68 | 94 | 8.7 | 16.5 | 0.00 | 0.00 | 0.00 | 50 | 1015.0 |
| 20260506200823 | 67 | 89 | 3.5 | 7.0 | 0.00 | 0.00 | 0.00 | 47 | 1015.0 |
| 20260506200319 | 65 | 257 | 2.6 | 3.5 | 0.00 | 0.00 | 0.00 | 52 | 1014.9 |
| 20260506195815 | 66 | 227 | 0.0 | 4.3 | 0.00 | 0.00 | 0.00 | 48 | 1015.0 |
| 20260506195312 | 64 | 55 | 0.0 | 10.4 | 0.00 | 0.00 | 0.00 | 53 | 1015.2 |
| 20260506194809 | 65 | 103 | 2.6 | 4.3 | 0.00 | 0.00 | 0.00 | 49 | 1015.2 |
| 20260506194306 | 64 | 67 | 0.0 | 6.1 | 0.00 | 0.00 | 0.00 | 51 | 1015.2 |
| 20260506193804 | 61 | 252 | 0.0 | 3.5 | 0.00 | 0.00 | 0.00 | 53 | 1015.2 |
| 20260506193300 | 62 | 105 | 0.0 | 3.5 | 0.00 | 0.00 | 0.00 | 53 | 1015.4 |
| 20260506192756 | 65 | 99 | 3.5 | 9.6 | 0.00 | 0.00 | 0.00 | 51 | 1015.4 |
| 20260506192253 | 63 | 93 | 5.2 | 5.2 | 0.00 | 0.00 | 0.00 | 53 | 1015.3 |
| 20260506191750 | 62 | 77 | 4.3 | 4.3 | 0.00 | 0.00 | 0.00 | 54 | 1015.4 |
| 20260506191247 | 61 | 95 | 1.7 | 9.6 | 0.00 | 0.00 | 0.00 | 58 | 1015.4 |
| 20260506190744 | 60 | 71 | 0.0 | 4.3 | 0.00 | 0.00 | 0.00 | 57 | 1015.1 |
| 20260506190240 | 63 | 94 | 10.4 | 12.2 | 0.00 | 0.00 | 0.00 | 53 | 1015.2 |
| 20260506185737 | 61 | 73 | 0.0 | 4.3 | 0.00 | 0.00 | 0.00 | 56 | 1015.3 |
| 20260506185234 | 61 | 157 | 1.7 | 4.3 | 0.00 | 0.00 | 0.00 | 55 | 1015.3 |
| 20260506184731 | 60 | 78 | 3.5 | 7.0 | 0.00 | 0.00 | 0.00 | 57 | 1015.4 |
| 20260506184228 | 59 | 163 | 0.0 | 7.8 | 0.00 | 0.00 | 0.00 | 58 | 1015.5 |
| 20260506183725 | 59 | 109 | 0.0 | 3.5 | 0.00 | 0.00 | 0.00 | 58 | 1015.4 |
| 20260506183221 | 60 | 87 | 5.2 | 7.8 | 0.00 | 0.00 | 0.00 | 55 | 1015.3 |
| 20260506182718 | 59 | 88 | 0.0 | 7.0 | 0.00 | 0.00 | 0.00 | 57 | 1015.3 |
| 20260506182215 | 57 | 126 | 2.6 | 4.3 | 0.00 | 0.00 | 0.00 | 60 | 1015.2 |
| 20260506181713 | 58 | 77 | 6.1 | 11.3 | 0.00 | 0.00 | 0.00 | 58 | 1015.3 |
| 20260506181210 | 59 | 72 | 5.2 | 5.2 | 0.00 | 0.00 | 0.00 | 56 | 1015.4 |
| 20260506180707 | 59 | 120 | 0.0 | 7.0 | 0.00 | 0.00 | 0.00 | 59 | 1015.6 |
| 20260506180203 | 59 | 53 | 0.0 | 5.2 | 0.00 | 0.00 | 0.00 | 57 | 1015.4 |
| 20260506175659 | 59 | 227 | 1.7 | 5.2 | 0.00 | 0.00 | 0.00 | 57 | 1015.4 |
| 20260506175156 | 57 | 172 | 2.6 | 3.5 | 0.00 | 0.00 | 0.00 | 57 | 1015.6 |
| 20260506174649 | 57 | 164 | 0.0 | 3.5 | 0.00 | 0.00 | 0.00 | 58 | 1015.7 |
| 20260506174145 | 57 | 146 | 1.7 | 9.6 | 0.00 | 0.00 | 0.00 | 57 | 1015.6 |
| 20260506173643 | 58 | 217 | 0.0 | 6.1 | 0.00 | 0.00 | 0.00 | 57 | 1015.8 |
| 20260506173140 | 57 | 99 | 2.6 | 4.3 | 0.00 | 0.00 | 0.00 | 58 | 1015.8 |
| 20260506172637 | 58 | 76 | 0.0 | 5.2 | 0.00 | 0.00 | 0.00 | 55 | 1015.7 |
| 20260506172133 | 57 | 198 | 2.6 | 3.5 | 0.00 | 0.00 | 0.00 | 58 | 1015.7 |
| 20260506171631 | 58 | 239 | 0.0 | 5.2 | 0.00 | 0.00 | 0.00 | 56 | 1015.9 |
| 20260506171128 | 56 | 179 | 4.3 | 5.2 | 0.00 | 0.00 | 0.00 | 57 | 1015.9 |
| 20260506170620 | 56 | 151 | 1.7 | 4.3 | 0.00 | 0.00 | 0.00 | 58 | 1015.9 |
| 20260506170117 | 56 | 145 | 0.0 | 2.6 | 0.00 | 0.00 | 0.00 | 59 | 1015.8 |
| 20260506165615 | 57 | 81 | 3.5 | 4.3 | 0.00 | 0.00 | 0.00 | 57 | 1015.8 |
| 20260506165111 | 57 | 121 | 2.6 | 7.0 | 0.00 | 0.00 | 0.00 | 57 | 1016.0 |
| 20260506164608 | 57 | 171 | 0.0 | 4.3 | 0.00 | 0.00 | 0.00 | 57 | 1016.1 |
| 20260506164106 | 56 | 126 | 0.0 | 17.4 | 0.00 | 0.00 | 0.00 | 56 | 1016.2 |
| 20260506163601 | 58 | 131 | 1.7 | 7.8 | 0.00 | 0.00 | 0.00 | 56 | 1016.1 |
| 20260506163057 | 58 | 204 | 0.0 | 6.1 | 0.00 | 0.00 | 0.00 | 55 | 1016.2 |
| 20260506162554 | 57 | 143 | 1.7 | 5.2 | 0.00 | 0.00 | 0.00 | 56 | 1016.1 |
| 20260506162051 | 57 | 131 | 1.7 | 7.8 | 0.00 | 0.00 | 0.00 | 56 | 1016.3 |
| 20260506161549 | 57 | 289 | 0.0 | 5.2 | 0.00 | 0.00 | 0.00 | 56 | 1016.4 |
| 20260506161045 | 56 | 192 | 0.0 | 4.3 | 0.00 | 0.00 | 0.00 | 59 | 1016.4 |
| 20260506160543 | 55 | 267 | 2.6 | 5.2 | 0.00 | 0.00 | 0.00 | 58 | 1016.5 |
| 20260506160040 | 56 | 15 | 3.5 | 8.7 | 0.00 | 0.00 | 0.00 | 59 | 1016.6 |
| 20260506155539 | 55 | 102 | 2.6 | 5.2 | 0.00 | 0.00 | 0.00 | 60 | 1016.5 |
| 20260506153715 | 54 | 138 | 1.7 | 7.0 | 0.00 | 0.00 | 0.00 | 62 | 1016.5 |
| 20260506153213 | 54 | 120 | 4.3 | 6.1 | 0.00 | 0.00 | 0.00 | 63 | 1016.6 |
| 20260506152709 | 54 | 146 | 1.7 | 8.7 | 0.00 | 0.00 | 0.00 | 63 | 1016.4 |
| 20260506152207 | 54 | 127 | 0.0 | 5.2 | 0.00 | 0.00 | 0.00 | 62 | 1016.5 |
| 20260506151706 | 54 | 122 | 2.6 | 7.8 | 0.00 | 0.00 | 0.00 | 63 | 1016.5 |
| 20260506151202 | 55 | 172 | 0.0 | 13.9 | 0.00 | 0.00 | 0.00 | 62 | 1016.7 |
| 20260506150658 | 55 | 86 | 8.7 | 9.6 | 0.00 | 0.00 | 0.00 | 60 | 1016.6 |
| 20260506150155 | 55 | 88 | 2.6 | 11.3 | 0.00 | 0.00 | 0.00 | 61 | 1016.7 |
| 20260506145652 | 54 | 102 | 1.7 | 4.3 | 0.00 | 0.00 | 0.00 | 63 | 1016.4 |
| 20260506145149 | 54 | 193 | 0.0 | 7.8 | 0.00 | 0.00 | 0.00 | 61 | 1016.6 |
| 20260506144647 | 53 | 131 | 2.6 | 6.1 | 0.00 | 0.00 | 0.00 | 63 | 1016.6 |
| 20260506144143 | 54 | 74 | 8.7 | 8.7 | 0.00 | 0.00 | 0.00 | 62 | 1016.6 |
| 20260506143641 | 54 | 131 | 0.0 | 9.6 | 0.00 | 0.00 | 0.00 | 62 | 1016.5 |
| 20260506143139 | 53 | 97 | 1.7 | 8.7 | 0.00 | 0.00 | 0.00 | 62 | 1016.5 |
| 20260506142637 | 53 | 107 | 3.5 | 11.3 | 0.00 | 0.00 | 0.00 | 63 | 1016.3 |
| 20260506142135 | 53 | 92 | 4.3 | 7.8 | 0.00 | 0.00 | 0.00 | 63 | 1016.3 |
| 20260506141632 | 53 | 93 | 0.0 | 5.2 | 0.00 | 0.00 | 0.00 | 63 | 1016.2 |
| 20260506141130 | 53 | 50 | 3.5 | 4.3 | 0.00 | 0.00 | 0.00 | 64 | 1015.7 |
| 20260506140628 | 53 | 124 | 1.7 | 5.2 | 0.00 | 0.00 | 0.00 | 65 | 1015.8 |
| 20260506140125 | 52 | 125 | 1.7 | 5.2 | 0.00 | 0.00 | 0.00 | 65 | 1015.9 |
| 20260506135622 | 52 | 106 | 0.0 | 7.0 | 0.00 | 0.00 | 0.00 | 66 | 1015.6 |
| 20260506135118 | 52 | 142 | 2.6 | 4.3 | 0.00 | 0.00 | 0.00 | 67 | 1015.9 |
| 20260506134614 | 52 | 185 | 1.7 | 11.3 | 0.00 | 0.00 | 0.00 | 66 | 1015.9 |
| 20260506134110 | 52 | 129 | 0.0 | 10.4 | 0.00 | 0.00 | 0.00 | 66 | 1015.7 |
| 20260506133608 | 52 | 105 | 3.5 | 5.2 | 0.00 | 0.00 | 0.00 | 67 | 1015.6 |
| 20260506133105 | 52 | 147 | 0.0 | 7.8 | 0.00 | 0.00 | 0.00 | 67 | 1015.3 |
| 20260506132602 | 52 | 118 | 3.5 | 4.3 | 0.00 | 0.00 | 0.00 | 67 | 1015.4 |
| 20260506132059 | 52 | 54 | 4.3 | 5.2 | 0.00 | 0.00 | 0.00 | 67 | 1015.0 |
| 20260506131556 | 52 | 161 | 4.3 | 5.2 | 0.00 | 0.00 | 0.00 | 67 | 1015.0 |
| 20260506131052 | 51 | 126 | 3.5 | 6.1 | 0.00 | 0.00 | 0.00 | 67 | 1014.9 |
| 20260506130549 | 51 | 197 | 0.0 | 5.2 | 0.00 | 0.00 | 0.00 | 68 | 1015.0 |
| 20260506130047 | 51 | 113 | 3.5 | 4.3 | 0.00 | 0.00 | 0.00 | 68 | 1014.8 |
| 20260506125545 | 51 | 108 | 4.3 | 4.3 | 0.00 | 0.00 | 0.00 | 68 | 1014.7 |
| 20260506125042 | 51 | 103 | 3.5 | 5.2 | 0.00 | 0.00 | 0.00 | 68 | 1014.6 |
| 20260506124540 | 51 | 122 | 2.6 | 3.5 | 0.00 | 0.00 | 0.00 | 69 | 1014.5 |
| 20260506124038 | 51 | 114 | 1.7 | 7.0 | 0.00 | 0.00 | 0.00 | 68 | 1014.5 |
| 20260506123535 | 51 | 120 | 3.5 | 4.3 | 0.00 | 0.00 | 0.00 | 69 | 1014.3 |
| 20260506123033 | 51 | 145 | 0.0 | 5.2 | 0.00 | 0.00 | 0.00 | 69 | 1014.1 |
| 20260506122529 | 51 | 124 | 0.0 | 4.3 | 0.00 | 0.00 | 0.00 | 70 | 1014.3 |
| 20260506122028 | 51 | 124 | 2.6 | 4.3 | 0.00 | 0.00 | 0.00 | 69 | 1014.1 |
| 20260506121525 | 51 | 139 | 1.7 | 7.0 | 0.00 | 0.00 | 0.00 | 70 | 1014.3 |
| 20260506121021 | 51 | 136 | 0.0 | 4.3 | 0.00 | 0.00 | 0.00 | 70 | 1014.3 |
| 20260506120520 | 51 | 158 | 0.0 | 4.3 | 0.00 | 0.00 | 0.00 | 70 | 1014.2 |
| 20260506120017 | 51 | 145 | 0.0 | 3.5 | 0.00 | 0.00 | 0.00 | 70 | 1013.8 |
| 20260506115514 | 51 | 116 | 0.0 | 5.2 | 0.00 | 0.00 | 0.00 | 71 | 1013.8 |
| 20260506115013 | 51 | 96 | 3.5 | 3.5 | 0.00 | 0.00 | 0.00 | 71 | 1014.1 |
| 20260506114509 | 51 | 110 | 2.6 | 4.3 | 0.00 | 0.00 | 0.00 | 71 | 1013.7 |
| 20260506114008 | 51 | 149 | 0.0 | 6.1 | 0.00 | 0.00 | 0.00 | 71 | 1013.8 |
| 20260506113505 | 51 | 125 | 3.5 | 4.3 | 0.00 | 0.00 | 0.00 | 72 | 1013.6 |
| 20260506113002 | 51 | 102 | 3.5 | 4.3 | 0.00 | 0.00 | 0.00 | 72 | 1013.7 |
| 20260506112459 | 51 | 123 | 1.7 | 5.2 | 0.00 | 0.00 | 0.00 | 72 | 1013.7 |
| 20260506111956 | 51 | 145 | 1.7 | 3.5 | 0.00 | 0.00 | 0.00 | 73 | 1013.5 |
| 20260506111454 | 51 | 113 | 0.0 | 5.2 | 0.00 | 0.00 | 0.00 | 73 | 1013.7 |
| 20260506110951 | 51 | 95 | 2.6 | 3.5 | 0.00 | 0.00 | 0.00 | 73 | 1013.6 |
| 20260506110449 | 51 | 178 | 1.7 | 5.2 | 0.00 | 0.00 | 0.00 | 73 | 1013.9 |
| 20260506105945 | 51 | 165 | 3.5 | 6.1 | 0.00 | 0.00 | 0.00 | 73 | 1013.9 |
| 20260506105442 | 51 | 124 | 0.0 | 3.5 | 0.00 | 0.00 | 0.00 | 74 | 1013.6 |
| 20260506104939 | 51 | 134 | 3.5 | 4.3 | 0.00 | 0.00 | 0.00 | 75 | 1013.8 |
| 20260506104437 | 51 | 104 | 0.0 | 4.3 | 0.00 | 0.00 | 0.00 | 76 | 1013.6 |
| 20260506103935 | 51 | 173 | 2.6 | 4.3 | 0.00 | 0.00 | 0.00 | 76 | 1013.6 |
| 20260506103432 | 51 | 114 | 2.6 | 3.5 | 0.00 | 0.00 | 0.00 | 77 | 1013.5 |
| 20260506102929 | 51 | 114 | 1.7 | 7.0 | 0.00 | 0.00 | 0.00 | 77 | 1013.6 |
| 20260506102427 | 51 | 147 | 0.0 | 4.3 | 0.00 | 0.00 | 0.00 | 78 | 1013.1 |
| 20260506101924 | 51 | 138 | 2.6 | 3.5 | 0.00 | 0.00 | 0.00 | 79 | 1013.2 |
| 20260506101420 | 51 | 146 | 0.0 | 6.1 | 0.00 | 0.00 | 0.00 | 79 | 1013.2 |
| 20260506100918 | 51 | 113 | 2.6 | 5.2 | 0.00 | 0.00 | 0.00 | 79 | 1013.2 |
| 20260506100416 | 51 | 116 | 2.6 | 4.3 | 0.00 | 0.00 | 0.00 | 79 | 1013.2 |
| 20260506095914 | 51 | 140 | 6.1 | 7.8 | 0.00 | 0.00 | 0.00 | 79 | 1013.1 |
| 20260506095412 | 51 | 132 | 0.0 | 7.0 | 0.00 | 0.00 | 0.00 | 80 | 1012.9 |
| 20260506094908 | 50 | 191 | 0.0 | 6.1 | 0.00 | 0.00 | 0.00 | 81 | 1012.9 |
| 20260506094407 | 51 | 55 | 0.0 | 3.5 | 0.00 | 0.00 | 0.00 | 81 | 1013.1 |
| 20260506093904 | 51 | 91 | 2.6 | 4.3 | 0.00 | 0.00 | 0.00 | 81 | 1013.0 |
| 20260506093401 | 51 | 129 | 1.7 | 7.8 | 0.00 | 0.00 | 0.00 | 80 | 1012.9 |
| 20260506092859 | 51 | 107 | 1.7 | 4.3 | 0.00 | 0.00 | 0.00 | 80 | 1012.8 |
| 20260506092357 | 51 | 93 | 3.5 | 7.0 | 0.00 | 0.00 | 0.00 | 81 | 1013.4 |
| 20260506091853 | 51 | 188 | 0.0 | 4.3 | 0.00 | 0.00 | 0.00 | 81 | 1013.2 |
| 20260506091351 | 51 | 131 | 2.6 | 5.2 | 0.00 | 0.00 | 0.00 | 81 | 1013.0 |
| 20260506090848 | 51 | 116 | 2.6 | 3.5 | 0.00 | 0.00 | 0.00 | 81 | 1013.2 |
| 20260506090346 | 51 | 131 | 0.0 | 3.5 | 0.00 | 0.00 | 0.00 | 81 | 1012.9 |
| 20260506085842 | 51 | 138 | 0.0 | 4.3 | 0.00 | 0.00 | 0.00 | 81 | 1012.9 |
| 20260506085339 | 51 | 140 | 0.0 | 4.3 | 0.00 | 0.00 | 0.00 | 81 | 1013.1 |
| 20260506084835 | 51 | 126 | 1.7 | 3.5 | 0.00 | 0.00 | 0.00 | 80 | 1013.0 |
| 20260506084332 | 51 | 133 | 1.7 | 3.5 | 0.00 | 0.00 | 0.00 | 80 | 1012.8 |
| 20260506083829 | 51 | 167 | 0.0 | 5.2 | 0.00 | 0.00 | 0.00 | 80 | 1012.8 |
| 20260506083326 | 51 | 116 | 1.7 | 4.3 | 0.00 | 0.00 | 0.00 | 80 | 1012.8 |
| 20260506082824 | 51 | 122 | 2.6 | 4.3 | 0.00 | 0.00 | 0.00 | 79 | 1012.7 |
| 20260506082320 | 51 | 199 | 0.0 | 4.3 | 0.00 | 0.00 | 0.00 | 79 | 1012.5 |
| 20260506081816 | 51 | 114 | 2.6 | 5.2 | 0.00 | 0.00 | 0.00 | 78 | 1012.4 |
| 20260506081314 | 51 | 122 | 0.0 | 4.3 | 0.00 | 0.00 | 0.00 | 78 | 1012.2 |
| 20260506080812 | 51 | 122 | 1.7 | 4.3 | 0.00 | 0.00 | 0.00 | 78 | 1012.2 |
| 20260506080308 | 52 | 103 | 2.6 | 3.5 | 0.00 | 0.00 | 0.00 | 79 | 1012.3 |
| 20260506073252 | 52 | 150 | 0.0 | 4.3 | 0.00 | 0.00 | 0.00 | 78 | 1012.0 |
| 20260506072749 | 52 | 129 | 2.6 | 4.3 | 0.00 | 0.00 | 0.00 | 79 | 1012.0 |
| 20260506072246 | 52 | 118 | 0.0 | 4.3 | 0.00 | 0.00 | 0.00 | 79 | 1012.1 |
| 20260506071744 | 52 | 116 | 0.0 | 4.3 | 0.00 | 0.00 | 0.00 | 79 | 1012.2 |
| 20260506071242 | 52 | 116 | 2.6 | 3.5 | 0.00 | 0.00 | 0.00 | 79 | 1012.2 |
| 20260506070738 | 52 | 193 | 1.7 | 3.5 | 0.00 | 0.00 | 0.00 | 79 | 1012.1 |
| 20260506070235 | 52 | 116 | 5.2 | 6.1 | 0.00 | 0.00 | 0.00 | 78 | 1012.3 |
| 20260506062212 | 52 | 133 | 2.6 | 3.5 | 0.00 | 0.00 | 0.00 | 78 | 1011.6 |
| 20260506061708 | 52 | 135 | 2.6 | 3.5 | 0.00 | 0.00 | 0.00 | 78 | 1011.7 |
| 20260506061206 | 52 | 149 | 0.0 | 3.5 | 0.00 | 0.00 | 0.00 | 78 | 1011.8 |
| 20260506060705 | 52 | 156 | 0.0 | 2.6 | 0.00 | 0.00 | 0.00 | 77 | 1011.6 |
| 20260506060201 | 52 | 175 | 2.6 | 4.3 | 0.00 | 0.00 | 0.00 | 77 | 1011.9 |
| 20260506051133 | 53 | 96 | 2.6 | 6.1 | 0.00 | 0.00 | 0.00 | 76 | 1011.3 |
| 20260506050631 | 53 | 153 | 0.0 | 4.3 | 0.00 | 0.00 | 0.00 | 76 | 1011.1 |
| 20260506050128 | 53 | 146 | 1.7 | 2.6 | 0.00 | 0.00 | 0.00 | 76 | 1011.4 |
| 20260506045121 | 53 | 61 | 2.6 | 4.3 | 0.00 | 0.00 | 0.00 | 75 | 1011.4 |
| 20260506044619 | 53 | 84 | 0.0 | 4.3 | 0.00 | 0.00 | 0.00 | 75 | 1011.0 |
| 20260506044116 | 53 | 137 | 1.7 | 3.5 | 0.00 | 0.00 | 0.00 | 75 | 1011.2 |
| 20260506043613 | 53 | 84 | 0.0 | 3.5 | 0.00 | 0.00 | 0.00 | 74 | 1011.3 |
| 20260506043111 | 54 | 89 | 0.0 | 5.2 | 0.00 | 0.00 | 0.00 | 74 | 1011.5 |
| 20260506042610 | 54 | 121 | 0.0 | 4.3 | 0.00 | 0.00 | 0.00 | 74 | 1011.4 |
| 20260506042108 | 54 | 102 | 0.0 | 4.3 | 0.00 | 0.00 | 0.00 | 74 | 1011.3 |
| 20260506041606 | 54 | 116 | 1.7 | 4.3 | 0.00 | 0.00 | 0.00 | 74 | 1011.3 |
| 20260506041102 | 54 | 194 | 0.0 | 6.1 | 0.00 | 0.00 | 0.00 | 74 | 1011.0 |
| 20260506040600 | 54 | 304 | 0.0 | 4.3 | 0.00 | 0.00 | 0.00 | 74 | 1011.2 |
| 20260506040056 | 54 | 120 | 0.0 | 3.5 | 0.00 | 0.00 | 0.00 | 74 | 1011.3 |
| 20260506035553 | 54 | 77 | 3.5 | 4.3 | 0.00 | 0.00 | 0.00 | 73 | 1011.2 |
| 20260506035050 | 54 | 160 | 3.5 | 7.0 | 0.00 | 0.00 | 0.00 | 73 | 1011.1 |
| 20260506034547 | 54 | 97 | 7.8 | 7.8 | 0.00 | 0.00 | 0.00 | 73 | 1011.1 |
| 20260506034044 | 54 | 126 | 3.5 | 4.3 | 0.00 | 0.00 | 0.00 | 73 | 1010.9 |
| 20260506033542 | 54 | 184 | 0.0 | 6.1 | 0.00 | 0.00 | 0.00 | 73 | 1011.1 |
| 20260506033038 | 55 | 204 | 0.0 | 3.5 | 0.00 | 0.00 | 0.00 | 73 | 1010.7 |